[Iaude] MPEC U55: 2023 UH [a=1.04,e=0.14,i=19.9,H=26.1]
    mpec at marsden.cfa.harvard.edu 
    mpec at marsden.cfa.harvard.edu
       
    Tue Oct 17 23:40:46 EDT 2023
    
    
  
M.P.E.C. 2023-U55                              Issued 2023 October 18, 03:39 UT
     The Minor Planet Electronic Circulars contain information on unusual
         minor planets, routine data on comets and natural satellites,
         and occasional editorial announcements.  They are published
    on behalf of Division F of the International Astronomical Union by the
          Minor Planet Center, Smithsonian Astrophysical Observatory,
                          Cambridge, MA 02138, U.S.A.
			  
             Prepared using the Tamkin Foundation Computer Network
                              MPC at CFA.HARVARD.EDU
            URL https://www.minorplanetcenter.net/    ISSN 1523-6714
                                    2023 UH                                     
Observations:
     K23U00H*1C2023 10 16.37201604 26 12.332-11 32 40.24         20.12GVEU055G96
     K23U00H 1C2023 10 16.37719204 26 11.526-11 30 38.70         19.85GVEU055G96
     K23U00H 1C2023 10 16.38235004 26 10.684-11 28 36.34         20.12GVEU055G96
     K23U00H 1C2023 10 16.38750604 26 09.856-11 26 35.12         20.07GVEU055G96
     K23U00H mC2023 10 16.47775304 25 54.750-10 50 08.52         19.68GVEU055I52
     K23U00H mC2023 10 16.47806504 25 54.714-10 50 00.42         20.01GVEU055I52
     K23U00H mC2023 10 16.47837404 25 54.638-10 49 53.15         21.05GVEU055I52
     K23U00H mC2023 10 16.47868404 25 54.581-10 49 45.19         20.51GVEU055I52
     K23U00H  C2023 10 16.47905004 25 53.689-10 49 40.97         20.1 GVEU055H01
     K23U00H  C2023 10 16.48245404 25 53.140-10 48 16.79         19.8 GVEU055H01
     K23U00H  C2023 10 16.49327804 25 51.410-10 43 48.31         19.7 GVEU055H01
     K23U00H  C2023 10 16.50043704 25 50.289-10 40 50.05         19.9 GVEU055H01
     K23U00H  C2023 10 16.57528904 25 50.745-10 08 41.65         20.09wXEU055F51
     K23U00H  C2023 10 16.58634504 25 48.703-10 03 59.08         19.93wXEU055F51
     K23U00H KC2023 10 17.32666 04 24 59.44 -04 04 10.5          20.1 VqEU055734
     K23U00H KC2023 10 17.33232 04 24 58.33 -04 01 01.7          19.6 VqEU055734
     K23U00H KC2023 10 17.33798 04 24 57.21 -03 57 52.2          19.7 VqEU055734
     K23U00H KC2023 10 17.35163204 24 51.98 -03 50 16.9          19.6 VuEU055H21
     K23U00H KC2023 10 17.35356104 24 51.62 -03 49 11.9          19.7 VuEU055H21
     K23U00H KC2023 10 17.35549004 24 51.20 -03 48 06.8          19.5 VuEU055H21
     K23U00H KC2023 10 17.35741904 24 50.82 -03 47 01.7          20.2 VuEU055H21
     K23U00H KC2023 10 17.35947604 24 50.40 -03 45 52.1          20.2 VuEU055H21
     K23U00H hC2023 10 18.05244204 23 37.44 +03 38 42.4          19.6 GVEU055L01
     K23U00H hC2023 10 18.05395804 23 37.07 +03 39 48.4          19.7 GVEU055L01
     K23U00H IC2023 10 18.05547504 23 36.66 +03 40 55.0          19.9 GVEU055L01
     K23U00H hC2023 10 18.05698904 23 36.25 +03 42 02.4          19.9 GVEU055L01
     K23U00H hC2023 10 18.05850304 23 35.91 +03 43 08.7          19.8 GVEU055L01
Observer details:
734 Farpoint Observatory, Eskridge.  Observers D. Cromer, G. Hug, D. Goodin,
    R. Valentine.  Measurer G. Hug.  0.69-m f/3.54 reflector + CCD.
F51 Pan-STARRS 1, Haleakala.  Observers J. Bulger, T. Lowe, P. Minguez, A.
    Schultz, I. Smith.  Measurers K. Chambers, T. de Boer, J. Fairlamb, H.
    Gao, M. Huber, C.-C. Lin, E. Magnier, Y. Ramanjooloo, R. Wainscoat, R.
    Weryk.  1.8-m Ritchey-Chretien + CCD.
G96 Mt. Lemmon Survey.  Observer D. C. Fuls.  Measurers E. C. Beshore, D. Fay,
    J. B. Fazekas, D. C. Fuls, A. R. Gibbs, A. D. Grauer, H. Groeller, J. K.
    Hogan, R. A. Kowalski, S. M. Larson, G. J. Leonard, D. Rankin, R. L.
    Seaman, F. C. Shelly, K. W. Wierzchos.  1.5-m reflector + 10K CCD.
H01 Magdalena Ridge Observatory, Socorro.  Observers W. H. Ryan, E. V. Ryan.
    Measurer W. H. Ryan.  2.4-m f/8.9 Ritchey-Chretien + CCD.
H21 Astronomical Research Observatory, Westfield.  Observer R. Holmes.
    Measurers T. Linder, R. Holmes, L. Horn.  0.76-m f/3.0 astrograph + CCD.
I52 Steward Observatory, Mt. Lemmon Station.  Observer J. K. Hogan.  Measurers
    E. C. Beshore, D. Fay, J. B. Fazekas, D. C. Fuls, A. R. Gibbs, A. D.
    Grauer, H. Groeller, J. K. Hogan, R. A. Kowalski, S. M. Larson, G. J.
    Leonard, D. Rankin, R. L. Seaman, F. C. Shelly, K. W. Wierzchos.  1.0-m
    prime focus + CCD.
L01 Visnjan Observatory, Tican.  Observer K. Korlevic.  1.0-m f/2.9 reflector
    + CCD.
Orbital elements:
2023 UH                                                  Earth MOID = 0.0132 AU
Epoch 2023 Sept. 13.0 TT = JDT 2460200.5                Veres                   
M 256.18369              (2000.0)            P               Q                  
n   0.92822037     Peri.   86.32768     -0.35340794     -0.92351828             
a   1.0408033      Node    25.97488     +0.66462143     -0.36000616             
e   0.1427363      Incl.   19.89647     +0.65831694     -0.13232363             
P   1.06           H   26.12          G   0.15           U   7                  
Residuals in seconds of arc
231016 G96  0.3-  0.9+    231016 H01  0.1+  0.1-    231017 H21  0.0   0.1-
231016 G96  0.1+  0.1+    231016 H01  0.0   0.1-    231017 H21  0.4-  0.1-
231016 G96  0.0   0.3+    231016 H01  0.1+  0.0     231017 H21  0.2-  0.1-
231016 G96  0.1+  0.9-    231016 F51  0.1+  0.1+    231017 H21  0.2-  0.0
231016 I52  0.1-  0.3-    231016 F51  0.1+  0.1+    231018 L01  0.6+  0.5-
231016 I52  0.2+  0.1+    231017 734  0.0   0.1+    231018 L01  0.5+  0.8-
231016 I52  0.2-  0.3-    231017 734  0.1+  0.0     231018 L01  0.2-  0.5-
231016 I52  0.3-  0.0     231017 734  0.1+  0.1+    231018 L01  0.9-  0.7+
231016 H01  0.1+  0.1-    231017 H21  0.5-  0.2-    231018 L01  0.5-  0.6+
Ephemeris:
2023 UH                  a,e,i = 1.04, 0.14, 20                  q = 0.8922
Date    TT    R. A. (2000) Decl.     Delta      r    Elong.  Phase     V
2023 09 18    04 15 49.9 -39 20 56   0.2042  1.0842   107.5    62.1    25.1
...
2023 10 03    04 26 13.9 -36 05 02   0.1124  1.0497   112.9    61.5    23.7
...
2023 10 11    04 28 17.3 -29 12 10   0.06263 1.0304   119.0    58.0    22.3
...
2023 10 17    04 25 22.0 -06 52 06   0.02777 1.0158   132.4    46.4    20.1
2023 10 18    04 23 41.7 +03 04 34   0.02311 1.0134   136.2    42.9    19.6
2023 10 19    04 21 05.3 +17 21 02   0.01946 1.0109   138.5    40.8    19.2
...
2023 10 25    17 06 58.4 +75 37 28   0.03419 0.9964    92.0    86.0    21.8
...
2023 11 02    16 41 06.8 +57 19 55   0.08183 0.9774    77.0    98.3    24.2
...
2023 11 17    16 34 31.9 +49 38 07   0.1713  0.9443    70.1   100.1    25.8
M. P. C. Staff               (C) Copyright 2023 MPC           M.P.E.C. 2023-U55
    
    
More information about the Iaude
mailing list